• In Deutschland
  • Länderverzeichnis
  • Für 7 Tage
  • Wassertemperatur
  • Satellitenkarten
  • Wetterkarte
  • Widgets
  • user-avatar
    Anmelden

    Stündliche Wetter Idar-Oberstein

    Heute, 17 Oktober, Dienstag

    Zeit Temperatur Niederschläge Wind Luftdruck Luftfeuchtigkeit
    00:00 +13°C° 0 mm 1 m/S 736 mmHg 78%
    01:00 +12°C° 0 mm 1 m/S 735 mmHg 79%
    02:00 +12°C° 0 mm 1 m/S 735 mmHg 80%
    03:00 +12°C° 0 mm 1 m/S 735 mmHg 81%
    04:00 +11°C° 0 mm 1 m/S 735 mmHg 82%
    05:00 +11°C° 0 mm 1 m/S 735 mmHg 83%
    06:00 +11°C° 0 mm 1 m/S 735 mmHg 84%
    07:00 +13°C° 0 mm 1 m/S 735 mmHg 79%
    08:00 +15°C° 0 mm 1 m/S 736 mmHg 73%
    09:00 +18°C° 0 mm 1 m/S 736 mmHg 67%
    10:00 +19°C° 0 mm 1 m/S 735 mmHg 65%
    11:00 +21°C° 0 mm 1 m/S 735 mmHg 62%
    12:00 +22°C° 0 mm 1 m/S 735 mmHg 60%
    13:00 +22°C° 0 mm 1 m/S 734 mmHg 62%
    14:00 +22°C° 0 mm 1 m/S 734 mmHg 65%
    15:00 +22°C° 0 mm 1 m/S 733 mmHg 67%
    16:00 +20°C° 0 mm 1 m/S 733 mmHg 73%
    17:00 +18°C° 0 mm 1 m/S 733 mmHg 78%
    18:00 +15°C° 0 mm 1 m/S 732 mmHg 84%
    19:00 +14°C° 0 mm 1 m/S 732 mmHg 84%
    20:00 +14°C° 0 mm 1 m/S 732 mmHg 84%
    21:00 +13°C° 0 mm 1 m/S 732 mmHg 85%
    22:00 +13°C° 0 mm 1 m/S 732 mmHg 84%
    23:00 +12°C° 0 mm 1 m/S 731 mmHg 84%

    Morgen, 18 Oktober, Mittwoch

    Zeit Temperatur Niederschläge Wind Luftdruck Luftfeuchtigkeit
    00:00 +12°C° 0 mm 1 m/S 731 mmHg 83%
    01:00 +12°C° 0 mm 1 m/S 731 mmHg 82%
    02:00 +11°C° 0 mm 1 m/S 731 mmHg 81%
    03:00 +11°C° 0 mm 1 m/S 730 mmHg 80%
    04:00 +11°C° 0 mm 1 m/S 730 mmHg 80%
    05:00 +10°C° 0 mm 1 m/S 730 mmHg 80%
    06:00 +10°C° 0 mm 1 m/S 730 mmHg 80%
    07:00 +10°C° 0 mm 2 m/S 730 mmHg 75%
    08:00 +13°C° 0 mm 2 m/S 730 mmHg 70%
    09:00 +15°C° 0 mm 2 m/S 730 mmHg 65%
    10:00 +16°C° 0 mm 3 m/S 730 mmHg 62%
    11:00 +18°C° 0 mm 3 m/S 730 mmHg 59%
    12:00 +19°C° 0 mm 3 m/S 730 mmHg 56%
    13:00 +19°C° 0 mm 3 m/S 730 mmHg 58%
    14:00 +19°C° 0 mm 2 m/S 729 mmHg 61%
    15:00 +19°C° 0 mm 2 m/S 729 mmHg 63%
    16:00 +17°C° 0 mm 2 m/S 729 mmHg 69%
    17:00 +15°C° 0 mm 1 m/S 729 mmHg 75%
    18:00 +13°C° 0 mm 1 m/S 729 mmHg 82%
    19:00 +13°C° 0 mm 1 m/S 729 mmHg 82%
    20:00 +13°C° 0 mm 1 m/S 729 mmHg 83%
    21:00 +12°C° 0 mm 1 m/S 729 mmHg 83%
    22:00 +12°C° 0 mm 1 m/S 729 mmHg 83%
    23:00 +12°C° 0 mm 1 m/S 729 mmHg 82%

    übermorgen, 19 Oktober, Donnerstag

    Zeit Temperatur Niederschläge Wind Luftdruck Luftfeuchtigkeit
    00:00 +12°C° 0 mm 1 m/S 729 mmHg 82%
    01:00 +11°C° 0 mm 1 m/S 729 mmHg 81%
    02:00 +11°C° 0 mm 1 m/S 728 mmHg 80%
    03:00 +11°C° 0 mm 1 m/S 728 mmHg 80%
    04:00 +11°C° 0 mm 1 m/S 728 mmHg 80%
    05:00 +11°C° 0 mm 1 m/S 728 mmHg 80%
    06:00 +10°C° 0 mm 1 m/S 728 mmHg 80%
    07:00 +12°C° 0 mm 1 m/S 728 mmHg 75%
    08:00 +14°C° 0 mm 2 m/S 729 mmHg 69%
    09:00 +16°C° 0 mm 2 m/S 729 mmHg 64%
    10:00 +17°C° 0 mm 3 m/S 729 mmHg 60%
    11:00 +19°C° 0 mm 3 m/S 729 mmHg 56%
    12:00 +20°C° 0 mm 4 m/S 729 mmHg 52%
    13:00 +20°C° 0 mm 3 m/S 728 mmHg 55%
    14:00 +19°C° 0 mm 3 m/S 728 mmHg 57%
    15:00 +19°C° 0 mm 2 m/S 728 mmHg 60%
    16:00 +17°C° 0 mm 2 m/S 727 mmHg 63%
    17:00 +16°C° 0 mm 2 m/S 727 mmHg 67%
    18:00 +14°C° 0 mm 2 m/S 727 mmHg 70%
    19:00 +14°C° 0 mm 2 m/S 727 mmHg 69%
    20:00 +14°C° 0 mm 2 m/S 727 mmHg 68%
    21:00 +14°C° 0 mm 2 m/S 727 mmHg 67%
    22:00 +14°C° 0 mm 2 m/S 727 mmHg 67%
    23:00 +14°C° 0 mm 2 m/S 727 mmHg 67%

    20 Oktober, Freitag

    Zeit Temperatur Niederschläge Wind Luftdruck Luftfeuchtigkeit
    00:00 +13°C° 0 mm 3 m/S 727 mmHg 67%
    01:00 +13°C° 0,1 mm 3 m/S 727 mmHg 70%
    02:00 +13°C° 0,1 mm 3 m/S 727 mmHg 73%
    03:00 +13°C° 0,1 mm 4 m/S 727 mmHg 77%
    04:00 +13°C° 0,1 mm 4 m/S 727 mmHg 79%
    05:00 +13°C° 0,1 mm 5 m/S 727 mmHg 82%
    06:00 +13°C° 0,1 mm 5 m/S 727 mmHg 85%
    07:00 +14°C° 0,1 mm 5 m/S 728 mmHg 83%
    08:00 +14°C° 0,1 mm 6 m/S 729 mmHg 82%
    09:00 +14°C° 0,1 mm 6 m/S 729 mmHg 80%
    10:00 +15°C° 0,1 mm 6 m/S 729 mmHg 76%
    11:00 +15°C° 0,1 mm 6 m/S 730 mmHg 72%
    12:00 +16°C° 0,1 mm 6 m/S 730 mmHg 68%
    13:00 +16°C° 0 mm 6 m/S 730 mmHg 69%
    14:00 +16°C° 0 mm 5 m/S 730 mmHg 70%
    15:00 +17°C° 0 mm 4 m/S 729 mmHg 71%
    16:00 +14°C° 0 mm 3 m/S 729 mmHg 77%
    17:00 +13°C° 0 mm 3 m/S 729 mmHg 84%
    18:00 +13°C° 0 mm 2 m/S 729 mmHg 90%
    19:00 +13°C° 0 mm 2 m/S 729 mmHg 91%
    20:00 +13°C° 0 mm 2 m/S 729 mmHg 92%
    21:00 +13°C° 0 mm 2 m/S 729 mmHg 93%
    22:00 +13°C° 0 mm 2 m/S 728 mmHg 92%
    23:00 +13°C° 0 mm 2 m/S 728 mmHg 91%

    21 Oktober, Samstag

    Zeit Temperatur Niederschläge Wind Luftdruck Luftfeuchtigkeit
    00:00 +13°C° 0 mm 2 m/S 727 mmHg 90%
    01:00 +12°C° 0 mm 3 m/S 727 mmHg 87%
    02:00 +13°C° 0 mm 3 m/S 726 mmHg 84%
    03:00 +13°C° 0 mm 4 m/S 726 mmHg 82%
    04:00 +13°C° 0 mm 4 m/S 726 mmHg 79%
    05:00 +14°C° 0 mm 5 m/S 726 mmHg 77%
    06:00 +14°C° 0 mm 5 m/S 726 mmHg 75%
    07:00 +14°C° 0,7 mm 5 m/S 726 mmHg 78%
    08:00 +14°C° 0,7 mm 6 m/S 726 mmHg 82%
    09:00 +14°C° 0,7 mm 6 m/S 726 mmHg 86%
    10:00 +13°C° 0,2 mm 6 m/S 726 mmHg 84%
    11:00 +13°C° 0,2 mm 6 m/S 726 mmHg 82%
    12:00 +12°C° 0,2 mm 7 m/S 726 mmHg 79%
    13:00 +12°C° 0,1 mm 7 m/S 726 mmHg 75%
    14:00 +13°C° 0,1 mm 6 m/S 727 mmHg 71%
    15:00 +14°C° 0,1 mm 6 m/S 727 mmHg 67%
    16:00 +13°C° 0 mm 6 m/S 727 mmHg 68%
    17:00 +12°C° 0 mm 5 m/S 727 mmHg 69%
    18:00 +9°C° 0 mm 5 m/S 727 mmHg 70%
    19:00 +9°C° 0 mm 5 m/S 728 mmHg 70%
    20:00 +9°C° 0 mm 5 m/S 728 mmHg 69%
    21:00 +8°C° 0 mm 5 m/S 728 mmHg 68%
    22:00 +8°C° 0 mm 5 m/S 728 mmHg 69%
    23:00 +7°C° 0 mm 5 m/S 729 mmHg 70%

    22 Oktober, Sonntag

    Zeit Temperatur Niederschläge Wind Luftdruck Luftfeuchtigkeit
    00:00 +7°C° 0 mm 5 m/S 729 mmHg 71%
    01:00 +7°C° 0 mm 5 m/S 728 mmHg 73%
    02:00 +6°C° 0 mm 5 m/S 728 mmHg 74%
    03:00 +6°C° 0 mm 5 m/S 728 mmHg 76%
    04:00 +6°C° 0 mm 5 m/S 728 mmHg 77%
    05:00 +6°C° 0 mm 5 m/S 728 mmHg 79%
    06:00 +5°C° 0 mm 5 m/S 728 mmHg 80%
    07:00 +5°C° 0 mm 6 m/S 728 mmHg 76%
    08:00 +6°C° 0 mm 7 m/S 728 mmHg 72%
    09:00 +8°C° 0 mm 7 m/S 729 mmHg 69%
    10:00 +8°C° 0 mm 7 m/S 729 mmHg 68%
    11:00 +7°C° 0 mm 8 m/S 729 mmHg 67%
    12:00 +7°C° 0 mm 8 m/S 729 mmHg 66%
    13:00 +8°C° 0,1 mm 7 m/S 729 mmHg 68%
    14:00 +8°C° 0,1 mm 7 m/S 729 mmHg 69%
    15:00 +6°C° 0,1 mm 7 m/S 729 mmHg 71%
    16:00 +6°C° 0,1 mm 7 m/S 729 mmHg 73%
    17:00 +7°C° 0,1 mm 6 m/S 729 mmHg 75%
    18:00 +7°C° 0,1 mm 6 m/S 729 mmHg 77%
    19:00 +7°C° 0,2 mm 6 m/S 729 mmHg 79%
    20:00 +7°C° 0,2 mm 6 m/S 730 mmHg 81%
    21:00 +7°C° 0,2 mm 6 m/S 730 mmHg 83%
    22:00 +7°C° 0 mm 6 m/S 730 mmHg 83%
    23:00 +7°C° 0 mm 6 m/S 730 mmHg 84%
    Mehr zeigen